Weather History for Minchumina, AK

Change the Weather History Date:

Friday, May 4, 2012

  Actual Average Record
Temperature  
Mean Temperature 37 °F -  
Max Temperature 50 °F 44 °F 71 °F (2004)
Min Temperature 24 °F 29 °F 10 °F (2001)
Degree Days  
Heating Degree Days 28    
Moisture  
Dew Point 19 °F    
Average Humidity 47    
Maximum Humidity 86    
Minimum Humidity 26    
Precipitation  
Precipitation 0.00 in - - ()
Sea Level Pressure  
Sea Level Pressure 29.74 in    
Wind  
Wind Speed 1 mph (East)    
Max Wind Speed 8 mph    
Max Gust Speed -    
Visibility 10 miles    
Events      
Averages and records for this station are not official NWS values.
T = Trace of Precipitation, MM = Missing Value Source: NWS Daily Summary

Daily Weather History Graph

Daily Weather History Graph

Search for Another Location

Airport:

Trip Planner

Search our weather history database for the weather conditions in past years. The results will help you decide how hot, cold, wet, or windy it might be!

Date:

Astronomy

May. 04, 2012 Rise Set
Actual Time 5:30 AM AKDT 10:43 PM AKDT
Civil Twilight 4:17 AM AKDT 11:57 PM AKDT
Nautical Twilight 2:38 AM AKDT 1:33 AM AKDT
Astronomical Twilight Sun does not rise Sun does not rise
Moon 9:23 PM AKDT (5/4) 4:49 AM AKDT (5/4)
Length of Visible Light 19h 39m
Length of Day
17h 12m
Waxing Gibbous, 97% of the Moon is Illuminated
May 4
Waxing Gibbous
May 5
Full
May 12
Last Quarter
May 20
New
May 28
First Quarter

Hourly Weather History & Observations

Time (AKDT) Temp. Windchill Dew Point Humidity Pressure Visibility Wind Dir Wind Speed Gust Speed Precip Events Conditions
12:16 AM 33.8 °F - 15.8 °F 48% 29.65 in 10.0 mi Calm Calm - N/A   Clear
12:36 AM 33.8 °F - 15.8 °F 48% 29.65 in 10.0 mi Calm Calm - N/A   Clear
12:56 AM 32.0 °F - 17.6 °F 55% 29.66 in 10.0 mi Calm Calm - N/A   Clear
1:16 AM 33.8 °F - 15.8 °F 48% 29.66 in 10.0 mi Calm Calm - N/A   Clear
1:36 AM 32.0 °F - 14.0 °F 48% 29.66 in 10.0 mi Calm Calm - N/A   Clear
1:56 AM 30.2 °F - 14.0 °F 51% 29.66 in 10.0 mi Calm Calm - N/A   Clear
2:16 AM 30.2 °F - 15.8 °F 55% 29.67 in 10.0 mi Calm Calm - N/A   Clear
2:36 AM 30.2 °F - 17.6 °F 60% 29.67 in 10.0 mi Calm Calm - N/A   Clear
2:56 AM 30.2 °F - 17.6 °F 60% 29.68 in 10.0 mi Calm Calm - N/A   Clear
3:16 AM 30.2 °F - 15.8 °F 55% 29.68 in 10.0 mi Calm Calm - N/A   Clear
3:36 AM 30.2 °F - 12.2 °F 47% 29.68 in 10.0 mi Calm Calm - N/A   Clear
3:56 AM 30.2 °F - 12.2 °F 47% 29.69 in 10.0 mi Calm Calm - N/A   Clear
4:16 AM 26.6 °F - 23.0 °F 86% 29.69 in 10.0 mi Calm Calm - N/A   Clear
4:36 AM 26.6 °F - 21.2 °F 80% 29.70 in 10.0 mi Calm Calm - N/A   Clear
4:56 AM 26.6 °F - 21.2 °F 80% 29.70 in 10.0 mi Calm Calm - N/A   Clear
5:16 AM 26.6 °F - 17.6 °F 69% 29.70 in 10.0 mi Calm Calm - N/A   Partly Cloudy
5:36 AM 24.8 °F - 21.2 °F 86% 29.71 in 10.0 mi Calm Calm - N/A   Mostly Cloudy
5:56 AM 24.8 °F - 19.4 °F 80% 29.71 in 10.0 mi Calm Calm - N/A   Overcast
6:16 AM 24.8 °F - 21.2 °F 86% 29.71 in 10.0 mi Calm Calm - N/A   Scattered Clouds
6:36 AM 30.2 °F - 15.8 °F 55% 29.72 in 10.0 mi Calm Calm - N/A   Scattered Clouds
6:56 AM 28.4 °F - 17.6 °F 64% 29.72 in 10.0 mi Calm Calm - N/A   Mostly Cloudy
7:16 AM 28.4 °F - 19.4 °F 69% 29.73 in 10.0 mi Calm Calm - N/A   Overcast
7:36 AM 28.4 °F - 21.2 °F 74% 29.73 in 10.0 mi Calm Calm - N/A   Scattered Clouds
7:56 AM 28.4 °F - 19.4 °F 69% 29.74 in 10.0 mi Calm Calm - N/A   Clear
8:16 AM 30.2 °F - 21.2 °F 69% 29.74 in 10.0 mi Calm Calm - N/A   Clear
8:36 AM 32.0 °F - 23.0 °F 69% 29.74 in 10.0 mi Calm Calm - N/A   Clear
8:56 AM 32.0 °F - 21.2 °F 64% 29.75 in 10.0 mi Calm Calm - N/A   Clear
9:16 AM 33.8 °F - 17.6 °F 52% 29.75 in 10.0 mi Calm Calm - N/A   Clear
9:36 AM 35.6 °F - 19.4 °F 52% 29.75 in 10.0 mi Calm Calm - N/A   Clear
9:56 AM 35.6 °F - 19.4 °F 52% 29.75 in 10.0 mi Calm Calm - N/A   Clear
10:16 AM 37.4 °F 34.9 °F 17.6 °F 45% 29.75 in 10.0 mi East 3.5 mph - N/A   Clear
10:36 AM 39.2 °F 35.9 °F 17.6 °F 42% 29.76 in 10.0 mi East 4.6 mph - N/A   Clear
10:56 AM 39.2 °F 37.0 °F 17.6 °F 42% 29.76 in 10.0 mi East 3.5 mph - N/A   Clear
11:16 AM 41.0 °F 37.1 °F 17.6 °F 39% 29.76 in 10.0 mi East 5.8 mph - N/A   Clear
11:36 AM 42.8 °F - 19.4 °F 39% 29.76 in 10.0 mi Calm Calm - N/A   Clear
11:56 AM 42.8 °F 39.3 °F 17.6 °F 36% 29.76 in 10.0 mi East 5.8 mph - N/A   Clear
12:16 PM 42.8 °F 40.1 °F 17.6 °F 36% 29.76 in 10.0 mi ESE 4.6 mph - N/A   Clear
12:36 PM 44.6 °F 40.2 °F 19.4 °F 37% 29.76 in 10.0 mi ESE 8.1 mph - N/A   Mostly Cloudy
12:56 PM 44.6 °F 40.7 °F 15.8 °F 31% 29.76 in 10.0 mi East 6.9 mph - N/A   Overcast
1:16 PM 44.6 °F 43.1 °F 17.6 °F 34% 29.76 in 10.0 mi ENE 3.5 mph - N/A   Overcast
1:36 PM 46.4 °F 43.5 °F 19.4 °F 34% 29.76 in 10.0 mi East 5.8 mph - N/A   Overcast
1:56 PM 48.2 °F - 19.4 °F 32% 29.76 in 10.0 mi NE 4.6 mph - N/A   Overcast
2:16 PM 46.4 °F - 15.8 °F 29% 29.76 in 10.0 mi Calm Calm - N/A   Mostly Cloudy
2:36 PM 46.4 °F 45.2 °F 17.6 °F 32% 29.76 in 10.0 mi NE 3.5 mph - N/A   Mostly Cloudy
2:56 PM 46.4 °F 44.3 °F 17.6 °F 32% 29.76 in 10.0 mi East 4.6 mph - N/A   Partly Cloudy
3:16 PM 46.4 °F 42.4 °F 17.6 °F 32% 29.76 in 10.0 mi ESE 8.1 mph - N/A   Mostly Cloudy
3:36 PM 48.2 °F - 17.6 °F 30% 29.76 in 10.0 mi Calm Calm - N/A   Overcast
3:56 PM 48.2 °F - 15.8 °F 27% 29.76 in 10.0 mi East 4.6 mph - N/A   Overcast
4:16 PM 50.0 °F - 15.8 °F 26% 29.76 in 10.0 mi East 5.8 mph - N/A   Scattered Clouds
4:36 PM 50.0 °F - 17.6 °F 28% 29.76 in 10.0 mi ENE 4.6 mph - N/A   Mostly Cloudy
4:56 PM 48.2 °F - 15.8 °F 27% 29.76 in 10.0 mi East 6.9 mph - N/A   Mostly Cloudy
5:16 PM 48.2 °F - 15.8 °F 27% 29.76 in 10.0 mi East 4.6 mph - N/A   Mostly Cloudy
5:36 PM 48.2 °F - 19.4 °F 32% 29.76 in 10.0 mi East 4.6 mph - N/A   Overcast
5:56 PM 48.2 °F - 17.6 °F 30% 29.77 in 10.0 mi ENE 3.5 mph - N/A   Overcast
6:16 PM 48.2 °F - 19.4 °F 32% 29.77 in 10.0 mi NE 3.5 mph - N/A   Overcast
6:36 PM 48.2 °F - 17.6 °F 30% 29.76 in 10.0 mi Calm Calm - N/A   Overcast
6:56 PM 46.4 °F 45.2 °F 15.8 °F 29% 29.76 in 10.0 mi East 3.5 mph - N/A   Scattered Clouds
7:16 PM 48.2 °F - 15.8 °F 27% 29.77 in 10.0 mi Calm Calm - N/A   Mostly Cloudy
7:36 PM 44.6 °F 40.2 °F 21.2 °F 39% 29.78 in 10.0 mi ENE 8.1 mph - N/A   Overcast
7:56 PM 46.4 °F - 19.4 °F 34% 29.77 in 10.0 mi Calm Calm - N/A   Overcast
8:16 PM 46.4 °F - 19.4 °F 34% 29.78 in 10.0 mi Calm Calm - N/A   Overcast
8:36 PM 44.6 °F - 21.2 °F 39% 29.78 in 10.0 mi Calm Calm - N/A   Overcast
8:56 PM 44.6 °F - 21.2 °F 39% 29.79 in 10.0 mi Calm Calm - N/A   Overcast
9:16 PM 44.6 °F - 19.4 °F 37% 29.79 in 10.0 mi Calm Calm - N/A   Overcast
9:36 PM 42.8 °F - 21.2 °F 42% 29.79 in 10.0 mi Calm Calm - N/A   Mostly Cloudy
9:56 PM 42.8 °F 41.1 °F 23.0 °F 46% 29.80 in 10.0 mi NE 3.5 mph - N/A   Overcast
10:16 PM 41.0 °F - 24.8 °F 53% 29.80 in 10.0 mi Calm Calm - N/A   Mostly Cloudy
10:36 PM 42.8 °F - 23.0 °F 46% 29.80 in 10.0 mi Calm Calm - N/A   Overcast
10:56 PM 42.8 °F - 21.2 °F 42% 29.80 in 10.0 mi Calm Calm - N/A   Overcast
11:16 PM 42.8 °F - 21.2 °F 42% 29.81 in 10.0 mi Calm Calm - N/A   Overcast
11:36 PM 42.8 °F - 21.2 °F 42% 29.81 in 10.0 mi Calm Calm - N/A   Overcast
11:56 PM 39.2 °F - 21.2 °F 49% 29.81 in 10.0 mi Calm Calm - N/A   Overcast